Theta_e
344 331 335 335 336 336 336 336 336 335 329 324 335 335 328 316 317 332 339 341 341 340 335 327 324 325 315 314 318 323 327 330 334 335 334 332 331 332 333 334 333 330 334
341 331 333 336 336 336 338 337 335 333 330 333 339 326 319 311 310 316 333 340 340 338 333 323 322 315 314 319 328 332 333 332 332 332 335 334 331 330 329 330 329 335 335
336 331 333 334 336 338 337 336 333 328 333 339 327 321 317 310 313 313 321 333 339 336 329 320 316 316 316 324 333 334 334 332 330 330 332 331 329 328 332 336 335 336 334
329 331 334 337 337 338 337 334 330 325 334 337 325 324 315 311 313 316 317 324 329 321 318 316 315 316 315 326 331 332 334 332 332 332 327 321 318 320 321 325 328 328 331
330 332 337 338 338 339 336 330 322 322 329 336 331 325 316 313 312 314 314 316 317 317 316 316 316 316 315 325 332 334 334 332 331 328 318 314 314 314 315 313 312 312 314
333 335 339 340 340 338 334 327 319 323 326 336 334 325 317 315 314 313 314 315 316 316 316 316 316 316 316 316 323 329 331 328 326 322 317 314 313 312 311 310 309 309 308
334 340 339 341 340 337 334 327 320 323 326 334 336 326 318 316 316 315 314 315 315 316 316 317 317 317 317 317 317 319 319 321 319 319 318 314 314 314 315 314 313 311 309
341 339 340 340 339 337 335 326 319 320 326 332 337 330 320 317 316 316 316 316 316 317 317 318 318 318 318 318 317 319 320 320 318 320 319 318 316 316 318 318 318 316 314
344 343 338 341 337 337 336 326 318 319 325 330 337 336 323 318 317 317 317 317 317 317 317 318 318 318 318 318 318 318 319 319 318 319 318 317 318 320 320 322 319 318 318
344 344 337 340 335 338 335 327 318 324 328 328 337 337 322 320 319 318 317 317 317 318 318 318 318 318 318 318 318 319 319 319 319 319 318 318 317 318 321 324 325 319 318
343 342 338 340 335 338 335 331 322 318 335 333 338 337 327 321 319 319 318 318 317 317 318 318 318 318 318 318 318 318 319 320 319 318 318 318 317 317 317 318 318 321 318
342 339 337 340 338 339 337 333 330 320 318 330 331 327 322 326 321 318 318 318 318 317 317 318 318 318 318 318 319 318 319 318 318 318 318 318 318 318 318 318 319 321 319
341 341 339 338 338 338 338 334 332 328 322 318 316 315 328 328 327 322 318 316 316 316 317 317 317 319 320 319 318 319 319 319 319 319 319 319 320 321 322 322 321 320 320
341 340 339 339 338 338 338 337 338 334 329 325 329 322 325 325 324 318 317 319 317 317 318 318 320 321 322 322 323 324 323 322 322 323 323 323 324 325 325 327 326 326 326
339 339 339 340 338 338 338 339 337 337 333 331 335 334 331 330 324 321 322 322 320 318 318 320 320 322 322 327 327 328 327 328 328 327 326 326 326 327 327 328 328 327 328
339 337 340 339 338 337 339 338 337 337 333 337 337 336 335 330 329 326 325 325 323 322 321 321 322 325 330 330 331 331 330 330 330 329 328 328 328 328 328 328 328 328 328
337 337 338 339 339 338 337 337 337 336 336 336 336 336 336 333 330 328 326 326 327 326 326 324 326 328 330 331 330 330 330 332 332 332 332 331 330 330 330 330 328 328 328
341 339 340 340 338 337 337 337 335 337 336 336 336 336 336 334 331 328 326 328 329 330 331 331 330 329 329 330 331 332 332 332 331 331 332 332 332 332 330 330 329 327 326
337 339 339 338 337 336 337 337 336 336 336 336 336 336 336 336 333 329 328 330 330 332 332 332 332 332 333 333 332 331 331 331 330 330 331 332 331 329 328 327 327 326 325
337 337 338 338 338 338 337 337 337 335 336 336 336 336 336 336 334 332 331 332 333 334 333 333 333 333 332 331 331 330 330 330 330 331 331 329 329 329 330 328 326 327 323
334 335 337 339 339 338 337 337 336 336 336 335 333 335 336 337 336 335 334 334 334 335 334 333 333 332 331 330 330 329 329 328 327 327 326 326 331 330 327 327 327 324 323
328 332 332 333 334 335 337 336 335 335 334 335 334 336 335 336 336 336 336 335 335 334 334 334 333 330 330 330 328 328 328 327 326 326 325 325 329 329 327 326 322 322 322
326 327 331 331 332 332 335 336 335 335 336 336 337 336 336 337 336 336 336 337 339 337 334 332 332 331 330 329 328 328 329 327 327 326 325 324 327 325 324 324 322 322 322
323 324 331 332 330 332 333 332 334 336 335 333 335 335 337 337 333 333 332 331 333 334 332 328 326 325 327 322 321 323 327 328 327 325 323 322 323 323 323 322 322 322 321
322 322 324 331 332 330 332 332 332 331 332 329 330 334 335 332 330 327 329 333 331 322 316 314 313 312 312 312 313 313 314 316 322 324 322 319 321 320 321 323 321 320 320
321 320 319 320 332 331 330 330 328 328 327 326 330 331 330 329 331 330 321 315 314 313 312 312 311 311 311 312 312 312 312 312 314 319 319 320 318 318 320 322 321 321 319
Wind_Speed
21 23 22 21 18 15 12 11 11 12 13 18 19 15 13 12 14 16 20 20 18 17 15 14 13 14 16 19 20 21 23 24 23 24 22 21 19 17 18 16 16 18 18
27 25 23 21 18 15 15 14 13 14 17 18 18 13 12 12 14 17 18 17 15 14 12 12 15 17 20 21 24 25 23 21 19 18 18 20 19 16 17 17 16 18 17
27 27 24 22 19 17 15 13 13 15 17 18 13 13 13 14 16 17 18 17 12 10 10 15 17 19 21 23 23 22 20 16 16 15 15 13 16 16 16 16 14 13 17
30 27 24 22 20 17 14 13 14 16 19 15 13 14 15 16 17 18 17 18 14 12 17 17 18 20 21 22 22 20 21 17 13 12 12 11 14 12 12 12 10 10 10
29 27 25 22 19 16 14 14 16 17 19 16 14 14 16 17 17 17 18 18 18 18 18 19 19 19 21 21 21 20 17 15 10 10 13 13 12 12 11 11 10 9 8
27 26 25 22 19 16 14 15 16 18 19 17 14 15 16 16 17 18 18 18 18 18 18 18 18 18 19 18 16 14 13 11 11 12 13 12 13 13 12 12 12 11 10
26 25 23 21 18 15 15 15 15 18 19 18 15 14 15 16 17 18 19 19 18 18 17 16 16 15 15 15 13 12 12 9 8 10 11 10 11 12 12 12 12 12 11
21 21 21 19 17 16 15 14 15 18 19 19 17 13 14 16 17 17 17 17 16 15 14 13 13 12 12 11 11 9 7 9 7 9 10 9 7 8 10 11 12 12 12
15 17 21 20 17 16 14 14 15 17 18 18 17 12 13 14 14 15 15 15 14 12 11 10 9 8 8 8 7 7 6 7 5 7 8 9 8 6 6 8 10 11 11
16 14 20 20 18 18 16 13 15 17 17 17 16 14 14 12 12 11 11 10 10 9 8 7 6 5 5 5 4 4 3 4 4 6 7 8 8 7 7 7 8 10 10
16 14 21 20 18 18 17 14 13 16 16 17 18 13 8 7 8 10 9 8 7 6 6 5 4 3 2 2 2 2 1 3 4 6 7 7 9 9 9 8 9 9 10
17 15 16 15 15 17 17 15 13 14 15 15 14 11 8 8 7 7 7 6 5 5 4 3 2 1 1 1 1 1 3 4 6 7 7 8 9 10 11 11 10 10 10
19 15 16 17 16 16 15 15 13 12 14 14 12 11 8 6 3 2 2 3 4 4 5 4 3 2 2 4 3 4 4 5 6 8 8 8 9 9 10 10 10 10 11
27 21 22 21 18 17 14 12 10 10 14 15 13 13 11 7 8 7 6 4 3 4 4 5 3 4 3 5 6 5 7 7 6 7 8 9 9 10 10 10 10 11 11
26 26 24 21 17 19 17 12 9 6 9 12 12 9 9 10 10 8 6 5 4 5 4 4 3 4 6 6 7 8 7 7 8 9 10 11 11 11 11 12 13 13 12
25 26 22 21 18 19 19 16 12 7 10 14 13 13 11 11 9 9 9 6 5 5 5 6 6 5 5 7 8 9 10 10 11 12 13 13 13 13 13 13 13 13 14
28 27 25 23 24 23 22 20 16 12 11 11 12 16 12 13 12 10 10 9 7 7 7 8 7 8 9 11 12 12 10 9 12 14 15 17 17 18 17 16 14 13 14
27 26 26 25 24 24 25 23 20 18 15 17 15 16 14 12 14 12 11 11 9 8 7 7 9 9 9 9 8 8 10 11 14 16 17 20 21 19 19 18 17 18 16
25 26 27 27 26 23 22 22 20 21 19 18 17 16 15 13 12 13 12 11 11 10 10 9 9 9 9 10 12 13 16 18 18 19 22 23 22 18 18 18 16 18 18
22 24 25 28 25 25 26 21 21 26 24 23 24 21 18 16 12 12 12 11 10 9 10 11 11 12 13 15 17 18 20 22 22 22 23 20 16 18 18 19 17 18 16
20 23 23 24 25 23 25 26 24 26 26 22 21 19 17 15 13 12 12 12 11 13 13 13 13 15 16 15 18 22 23 21 21 20 21 19 18 19 19 14 16 18 16
17 21 22 24 26 25 27 27 26 24 24 20 21 19 18 17 16 14 15 15 16 15 15 16 17 17 18 18 20 22 27 25 23 18 13 13 16 20 15 17 19 17 14
21 20 24 24 25 26 26 28 31 26 25 24 21 21 20 21 21 21 20 18 18 18 18 17 18 20 23 23 23 24 14 11 12 11 14 13 15 17 18 22 18 18 16
23 20 23 24 23 25 26 26 27 29 28 26 23 21 24 22 19 18 18 18 19 20 21 21 23 24 28 27 26 25 27 25 22 14 13 13 17 16 19 22 18 17 17
21 22 24 27 28 28 25 26 26 26 23 19 20 22 22 20 19 17 19 21 21 20 20 21 22 23 23 23 21 22 23 25 25 25 21 22 22 22 20 20 20 20 15
23 24 24 25 28 28 26 26 24 24 23 25 24 23 22 21 21 20 18 18 18 20 22 22 22 22 21 22 21 21 22 22 21 14 18 21 19 17 20 19 20 18 16
Wind_Direction
170 163 156 150 146 139 136 129 116 107 98 106 105 111 102 105 121 124 114 105 111 112 102 91 91 88 88 94 94 90 86 86 83 76 72 78 76 74 69 64 60 55 53
158 162 156 150 143 139 134 120 108 109 108 111 116 103 97 102 123 135 133 113 106 108 100 94 93 92 96 97 96 91 85 84 83 80 78 75 70 74 72 66 68 60 54
160 158 156 149 144 141 136 126 120 118 119 122 110 101 94 100 112 132 136 133 117 120 111 102 98 98 100 103 99 95 86 80 82 80 78 77 76 80 78 73 74 71 61
157 156 152 147 145 142 134 125 125 127 130 124 114 100 96 99 107 114 125 132 138 125 111 105 103 100 102 106 100 92 94 88 75 65 63 66 76 72 70 66 58 55 53
155 155 151 148 145 141 137 130 127 130 136 125 113 104 97 99 102 109 115 120 118 108 105 102 103 103 103 109 103 99 96 97 95 74 67 62 58 63 61 54 45 36 31
154 154 151 148 147 147 140 133 129 133 137 129 122 109 104 101 102 105 108 109 106 107 106 106 106 106 105 110 114 111 104 92 80 68 57 61 67 68 63 55 49 43 38
155 154 153 151 153 146 143 134 134 137 139 136 130 120 113 111 109 109 111 112 113 112 110 109 108 107 105 103 103 100 102 99 69 63 60 62 60 63 59 53 47 44 41
156 158 158 157 154 151 148 138 139 143 146 144 136 134 127 123 118 116 115 115 115 115 114 112 110 108 106 104 100 99 87 80 64 65 56 49 47 46 46 44 40 35 32
176 170 166 163 161 158 154 143 143 147 148 150 144 147 140 130 124 125 125 125 124 123 122 120 116 108 102 98 95 92 80 71 47 50 43 36 29 19 16 28 30 28 25
185 195 183 170 167 164 159 149 147 150 153 155 148 159 128 125 127 126 125 125 124 125 124 121 116 110 104 100 93 81 58 42 26 26 16 13 11 4 360 338 357 11 13
188 187 184 175 173 169 166 156 152 157 154 157 160 163 152 143 141 140 136 137 138 141 141 141 138 131 124 118 108 81 24 352 359 352 349 349 350 348 349 343 341 352 355
167 163 175 178 182 179 177 173 161 158 164 164 166 166 173 171 151 154 157 163 164 165 171 170 176 202 235 247 255 335 314 332 335 322 334 335 335 340 339 337 341 339 338
186 173 186 183 193 189 188 188 175 173 165 166 175 174 188 190 206 200 205 196 201 197 198 205 215 237 287 300 303 312 304 326 317 309 323 329 330 332 332 332 331 325 326
186 200 188 190 197 202 193 202 199 200 191 179 164 172 196 197 246 241 217 215 210 217 218 227 235 265 287 335 317 323 321 319 312 310 314 323 324 326 327 327 326 322 320
186 189 189 188 199 201 207 213 206 206 223 192 191 200 204 215 211 223 220 224 229 217 240 253 265 293 304 312 313 318 313 313 317 315 314 314 316 315 316 317 319 317 313
195 195 189 192 205 204 211 207 208 223 188 174 197 217 236 227 214 214 215 228 245 255 256 260 261 252 269 279 287 292 305 306 313 317 315 312 312 313 313 311 307 307 296
198 199 197 198 197 204 209 216 210 210 195 194 203 217 243 241 231 218 219 221 225 235 238 241 238 250 262 272 278 283 290 305 310 313 311 310 310 310 312 316 312 309 299
197 195 193 194 198 212 210 210 210 207 213 213 222 225 243 244 237 231 221 228 232 239 242 248 257 261 264 273 287 302 305 292 291 285 289 301 303 305 308 306 305 313 307
201 199 204 208 213 210 206 211 210 209 210 206 209 222 240 244 240 232 227 218 226 239 250 261 263 274 276 282 281 283 283 282 283 283 284 284 288 289 292 292 295 302 306
203 207 208 209 211 216 210 217 214 212 217 215 220 224 233 243 246 233 230 231 229 234 241 250 252 265 273 278 282 284 282 280 279 277 282 285 283 283 282 284 282 290 297
205 208 212 203 204 200 199 204 208 214 219 225 223 212 226 238 246 241 242 238 237 236 237 248 257 263 273 282 284 286 290 294 296 295 299 284 276 270 281 270 274 288 291
203 212 212 220 215 215 212 210 213 215 217 217 210 211 221 223 224 237 246 247 232 246 251 253 256 266 269 275 279 286 290 294 290 292 282 272 268 268 264 274 296 295 288
210 217 216 222 217 218 217 213 216 217 216 217 215 211 222 226 233 237 241 241 240 243 248 254 261 264 270 272 263 271 283 277 280 270 285 293 269 267 274 293 294 292 288
217 223 222 223 221 225 227 224 225 221 219 224 220 213 222 231 242 239 245 254 258 254 259 265 266 268 268 273 275 267 262 267 281 284 274 270 260 271 283 289 286 279 278
218 219 222 225 227 226 222 224 230 231 225 227 223 220 227 237 244 241 249 252 254 261 268 270 272 273 274 275 274 274 269 263 256 261 275 271 264 276 279 277 277 283 280
217 219 220 224 227 230 226 225 222 226 229 229 227 221 223 234 242 249 248 254 265 275 279 280 279 277 277 277 276 274 272 269 267 257 261 265 269 276 266 261 267 268 275